sat.trackr.live / text

‹ back to catalog

STARLINK-5268

NORAD 54192 · 2022-141AM

PAYLOAD ACTIVE UNKNOWN

§ Identity

Operator
Country
US
Launch date
2022-10-28
Launch site
AFWTR
Launch vehicle
Mass (kg)
RCS (m²)

Purposes: comms

External: N2YO · Heavens-Above · Gunter

§ Orbital elements

Epoch: 2026-09-20T07:22:37.083360Z

Period
93.85 min
Inclination
53.1614°
Eccentricity
0.0001287
Mean motion
15.34386848 rev/d
Perigee alt
461.9 km
Apogee alt
463.6 km
Semi-major
6,840.9 km
B*
2.9135e-5
RAAN
190.3123°
Arg perigee
96.0096°
Mean anomaly
264.1054°
Rev number
21,551

§ Raw data

STARLINK-52681 54192U 22141AM  26263.30737365  .00000608  00000+0  29135-4 0  99912 54192  53.1614 190.3123 0001287  96.0096 264.1054 15.34386848215516

JSON: /api/v1/satellites/54192 · /tle

For live sub-satellite position, see the globe view (requires WebGL).

§ Visibility from observer

Set your observer location to see the next 7 days of passes ≥ 10°. The values pass through the URL so the page stays shareable.

No JS? Fill the form by hand. The geolocation button needs JavaScript.